OE3PDB-3 Weather Reports


time (UTC)temp
F
wind
direction
speed
knots
gust
knots
rain 1hr
in
rain 24hr
in
rain mn
in
humidity
%
barometer
mb
20260506191042 65 247 0.0 0.0 0.00 0.00 0.00 54 1004.3
20260506190042 65 270 0.0 0.0 0.00 0.00 0.00 53 1004.2
20260506185042 66 270 0.0 0.0 0.00 0.00 0.00 53 1004.2
20260506184042 66 270 0.0 0.0 0.00 0.00 0.00 52 1004.1
20260506183042 66 270 0.0 0.0 0.00 0.00 0.00 52 1004.1
20260506182042 66 270 0.0 0.0 0.00 0.00 0.00 51 1003.7
20260506181042 67 270 0.0 0.0 0.00 0.00 0.00 51 1004.0
20260506180042 67 270 0.0 0.0 0.00 0.00 0.00 51 1003.7
20260506175042 68 270 0.0 0.0 0.00 0.00 0.00 50 1003.5
20260506174042 68 247 0.0 0.0 0.00 0.00 0.00 50 1003.6
20260506173042 68 270 0.0 0.0 0.00 0.00 0.00 49 1003.6
20260506172042 69 270 0.0 0.0 0.00 0.00 0.00 49 1003.6
20260506171042 69 270 0.0 0.0 0.00 0.00 0.00 49 1003.6
20260506170042 69 270 0.0 0.0 0.00 0.00 0.00 48 1003.7
20260506165042 70 270 0.0 0.0 0.00 0.00 0.00 48 1004.0
20260506164042 70 247 0.0 0.0 0.00 0.00 0.00 48 1003.9
20260506163042 70 270 0.0 0.0 0.00 0.00 0.00 47 1004.0
20260506162042 71 270 0.0 0.0 0.00 0.00 0.00 47 1004.0
20260506161043 71 270 0.0 0.0 0.00 0.00 0.00 46 1004.1
20260506160042 72 225 0.0 0.0 0.00 0.00 0.00 45 1004.0
20260506155042 73 270 0.0 0.0 0.00 0.00 0.00 45 1004.0
20260506154042 73 270 0.0 0.0 0.00 0.00 0.00 43 1004.0
20260506153042 74 270 0.0 0.0 0.00 0.00 0.00 42 1004.0
20260506152042 74 270 0.0 0.0 0.00 0.00 0.00 41 1004.1
20260506151042 74 270 0.0 0.0 0.00 0.00 0.00 41 1004.0
20260506150042 75 270 0.0 0.0 0.00 0.00 0.00 40 1004.0
20260506145042 75 270 0.0 0.0 0.00 0.00 0.00 39 1004.0
20260506144042 75 270 0.0 0.0 0.00 0.00 0.00 39 1004.1
20260506143043 75 270 0.0 0.0 0.00 0.00 0.00 38 1004.1
20260506142043 76 247 0.0 0.0 0.00 0.00 0.00 39 1004.2
20260506141043 76 225 0.0 0.0 0.00 0.00 0.00 39 1004.1
20260506140043 75 270 0.0 0.0 0.00 0.00 0.00 39 1004.3
20260506135043 76 270 0.0 0.0 0.00 0.00 0.00 39 1004.3
20260506134043 76 247 0.0 0.0 0.00 0.00 0.00 38 1004.4
20260506133043 76 270 0.0 0.0 0.00 0.00 0.00 38 1004.5
20260506132043 76 247 0.0 0.0 0.00 0.00 0.00 38 1004.6
20260506131043 75 247 0.0 0.0 0.00 0.00 0.00 39 1004.7
20260506130043 74 270 0.0 0.0 0.00 0.00 0.00 40 1005.1
20260506125043 72 270 0.0 0.0 0.00 0.00 0.00 42 1005.1
20260506124043 71 270 0.0 0.0 0.00 0.00 0.00 43 1005.2
20260506123043 71 247 0.0 0.0 0.00 0.00 0.00 43 1005.5
20260506122043 71 270 0.0 0.0 0.00 0.00 0.00 44 1005.6
20260506121043 71 270 0.0 0.0 0.00 0.00 0.00 45 1005.6
20260506120043 71 247 0.0 0.0 0.00 0.00 0.00 45 1005.8
20260506115043 71 225 0.0 0.0 0.00 0.00 0.00 45 1005.9
20260506114043 71 270 0.0 0.0 0.00 0.00 0.00 44 1005.9
20260506113043 72 247 0.0 0.0 0.00 0.00 0.00 46 1006.0
20260506112043 71 270 0.0 0.0 0.00 0.00 0.00 47 1006.0
20260506111043 71 270 0.0 0.0 0.00 0.00 0.00 46 1006.2
20260506110043 71 270 0.0 0.0 0.00 0.00 0.00 47 1006.4
20260506105043 71 270 0.0 0.0 0.00 0.00 0.00 47 1006.6
20260506104043 71 270 0.0 0.0 0.00 0.00 0.00 47 1006.7
20260506103043 71 270 0.0 0.0 0.00 0.00 0.00 47 1006.7
20260506102043 71 270 0.0 0.0 0.00 0.00 0.00 48 1006.7
20260506101043 72 247 0.0 0.0 0.00 0.00 0.00 46 1006.8
20260506100043 72 247 0.0 0.0 0.00 0.00 0.00 45 1006.9
20260506095043 72 247 0.0 0.0 0.00 0.00 0.00 45 1007.3
20260506094043 71 225 0.0 0.0 0.00 0.00 0.00 45 1007.5
20260506093043 72 247 0.0 0.0 0.00 0.00 0.00 45 1007.6
20260506092043 72 270 0.0 0.0 0.00 0.00 0.00 44 1007.6
20260506091043 72 247 0.0 0.0 0.00 0.00 0.00 44 1007.7
20260506090043 73 247 0.0 0.0 0.00 0.00 0.00 43 1007.8
20260506085043 74 225 0.0 0.0 0.00 0.00 0.00 42 1007.8
20260506084043 76 270 0.0 0.0 0.00 0.00 0.00 40 1007.9
20260506083043 77 247 0.0 0.0 0.00 0.00 0.00 39 1007.9
20260506082043 79 247 0.0 0.0 0.00 0.00 0.00 36 1007.9
20260506081043 84 247 0.0 0.0 0.00 0.00 0.00 37 1007.9
20260506073043 82 67 0.0 0.0 0.00 0.00 0.00 40 1008.3
20260506072043 79 67 0.0 0.0 0.00 0.00 0.00 43 1008.3
20260506071043 75 67 0.0 0.0 0.00 0.00 0.00 49 1008.3
20260506062044 61 67 0.0 0.0 0.00 0.00 0.00 64 1008.7
20260506061044 60 135 0.0 0.0 0.00 0.00 0.00 66 1008.6
20260506051044 58 67 0.0 0.0 0.00 0.00 0.00 72 1008.7
20260506045044 56 67 0.0 0.0 0.00 0.00 0.00 73 1008.7
20260506044044 56 67 0.0 0.0 0.00 0.00 0.00 74 1008.5
20260506043044 56 135 0.0 0.0 0.00 0.00 0.00 74 1008.5
20260506042044 56 135 0.0 0.0 0.00 0.00 0.00 75 1008.2
20260506041044 55 112 0.0 0.0 0.00 0.00 0.00 75 1008.1
20260506040044 55 0 0.0 0.0 0.00 0.00 0.00 75 1008.1
20260506035044 55 0 0.0 0.0 0.00 0.00 0.00 75 1008.1
20260506034044 55 337 0.0 0.0 0.00 0.00 0.00 75 1008.1
20260506033044 55 0 0.0 0.0 0.00 0.00 0.00 75 1008.0
20260506032044 56 315 0.0 0.0 0.00 0.00 0.00 75 1008.0
20260506031044 56 45 0.0 0.0 0.00 0.00 0.00 74 1008.0
20260506030044 56 247 0.0 0.0 0.00 0.00 0.00 74 1008.0
20260506025044 57 135 0.0 0.0 0.00 0.00 0.00 75 1008.1
20260506024044 57 112 0.0 0.0 0.00 0.00 0.00 75 1008.0
20260506023044 57 112 0.0 0.0 0.00 0.00 0.00 75 1008.1
20260506022044 57 135 0.0 0.0 0.00 0.00 0.00 75 1008.1
20260506021044 57 135 0.0 0.0 0.00 0.00 0.00 74 1008.0
20260506020044 57 337 0.0 0.0 0.00 0.00 0.00 74 1007.9
20260506015044 57 90 0.0 0.0 0.00 0.00 0.00 74 1007.8
20260506014044 57 45 0.0 0.0 0.00 0.00 0.00 74 1007.7
20260506013044 57 315 0.0 0.0 0.00 0.00 0.00 73 1007.8
20260506012044 58 67 0.0 0.0 0.00 0.00 0.00 72 1007.7
20260506011044 58 135 0.0 0.0 0.00 0.00 0.00 71 1007.7
20260506010044 58 337 0.0 0.0 0.00 0.00 0.00 71 1007.5
20260506005044 59 112 0.0 0.0 0.00 0.00 0.00 69 1007.4
20260506004044 59 337 0.0 0.0 0.00 0.00 0.00 69 1007.4
20260506003044 59 22 0.0 0.0 0.00 0.00 0.00 68 1007.3
20260506002044 60 270 0.0 0.0 0.00 0.00 0.00 67 1007.0
20260506001044 60 315 0.0 0.0 0.00 0.00 0.00 66 1006.9
20260505235043 60 112 0.0 0.0 0.00 0.00 0.00 65 1006.8
20260505234043 60 45 0.0 0.0 0.00 0.00 0.00 65 1006.6
20260505233043 60 22 0.0 0.0 0.00 0.00 0.00 65 1006.4
20260505232043 60 67 0.0 0.0 0.00 0.00 0.00 65 1006.3
20260505231043 60 0 0.0 0.0 0.00 0.00 0.00 65 1006.1
20260505230043 59 225 0.0 0.0 0.00 0.00 0.00 65 1006.1
20260505225043 59 315 0.0 0.0 0.00 0.00 0.00 63 1006.1
20260505224043 60 45 0.0 0.0 0.00 0.00 0.00 63 1006.0
20260505223043 60 45 0.0 0.0 0.00 0.00 0.00 63 1005.9
20260505222043 60 45 0.0 0.0 0.00 0.00 0.00 62 1005.8
20260505221043 60 337 0.0 0.0 0.00 0.00 0.00 62 1005.8
20260505220043 60 112 0.0 0.0 0.00 0.00 0.00 61 1005.8
20260505215043 60 112 0.0 0.0 0.00 0.00 0.00 61 1005.7
20260505214043 61 112 0.0 0.0 0.00 0.00 0.00 60 1005.6
20260505213043 61 292 0.0 0.0 0.00 0.00 0.00 59 1005.6
20260505212043 61 135 0.0 0.0 0.00 0.00 0.00 59 1005.4
20260505211043 60 225 0.0 0.0 0.00 0.00 0.00 58 1005.2
20260505210043 59 135 0.0 0.0 0.00 0.00 0.00 59 1005.2
20260505205043 59 270 0.0 0.0 0.00 0.00 0.00 60 1005.2
20260505204043 59 270 0.0 0.0 0.00 0.00 0.00 60 1005.0
20260505203043 59 247 0.0 0.0 0.00 0.00 0.00 60 1004.9
20260505202043 59 247 0.0 0.0 0.00 0.00 0.00 59 1004.8
20260505201043 60 247 0.0 0.0 0.00 0.00 0.00 59 1004.6
20260505200043 60 270 0.0 0.0 0.00 0.00 0.00 58 1004.4
20260505195043 61 270 0.0 0.0 0.00 0.00 0.00 57 1004.4
20260505194043 61 270 0.0 0.0 0.00 0.00 0.00 55 1004.2
20260505193044 62 270 0.0 0.0 0.00 0.00 0.00 55 1004.2
20260505192043 62 270 0.0 0.0 0.00 0.00 0.00 54 1004.1